Location: Frankfurt am Main
(50.1109°N, 8.6821°E)
Time: 22:32:50
(UTC+01:00)

ISS - Pass Details

Date: 25 January 2020
Orbit: 415 x 423 km, 51.6° (Epoch: 25 February)

Event Time Altitude Azimuth Distance (km) Brightness Sun altitude
Rises 17:32:17 0° 213° (SSW) 2,370 1.2 -4.5°
Reaches altitude 10° 17:34:38 10° 199° (SSW) 1,508 -0.2 -4.9°
Maximum altitude 17:37:25 24° 144° (SE) 927 -2.1 -5.3°
Drops below altitude 10° 17:40:08 10° 89° (E) 1,490 -1.5 -5.7°
Enters shadow 17:40:56 - 83° (E) 1,768 -1.2 -5.8°
